SAS578 ESGG-ESSA

Flight info

Callsign SAS578
Flight time 0h 50m
Altitude 31000
Route LABAN N873 ARS T317 ELTOK
Aircraft A320/M-SDE3FGHIRWY/LB1

Departure

Time 2026-05-04 10:39
Airport Göteborg Landvetter Airport (ESGG)

Arrival

Time 2026-05-04 11:29
Airport Stockholm-Arlanda Airport (ESSA)
Time Latitude Longitude Altitude Speed Heading
2026-05-04 10:17 57.66849 12.29374 516 ft 0 kts 116°
2026-05-04 10:29 57.66853 12.29358 516 ft 2 kts 110°
2026-05-04 10:29 57.66859 12.29330 516 ft 2 kts 104°
2026-05-04 10:30 57.66863 12.29300 516 ft 2 kts 93°
2026-05-04 10:30 57.66863 12.29269 516 ft 2 kts 70°
2026-05-04 10:30 57.66855 12.29243 516 ft 2 kts 37°
2026-05-04 10:30 57.66846 12.29230 516 ft 1 kts 24°
2026-05-04 10:31 57.66845 12.29230 516 ft 0 kts 24°
2026-05-04 10:32 57.66849 12.29233 516 ft 0 kts 26°
2026-05-04 10:33 57.66857 12.29241 516 ft 3 kts 26°
2026-05-04 10:34 57.66887 12.29268 516 ft 6 kts 26°
2026-05-04 10:34 57.66937 12.29313 516 ft 9 kts 26°
2026-05-04 10:34 57.66984 12.29301 516 ft 8 kts 297°
2026-05-04 10:34 57.67017 12.29193 516 ft 10 kts 321°
2026-05-04 10:35 57.67092 12.29229 516 ft 13 kts 26°
2026-05-04 10:35 57.67182 12.29310 516 ft 16 kts 26°
2026-05-04 10:35 57.67289 12.29409 516 ft 19 kts 26°
2026-05-04 10:35 57.67380 12.29490 516 ft 10 kts 18°
2026-05-04 10:36 57.67421 12.29444 516 ft 7 kts 301°
2026-05-04 10:36 57.67450 12.29328 516 ft 10 kts 296°
2026-05-04 10:36 57.67460 12.29249 515 ft 0 kts 266°
2026-05-04 10:37 57.67459 12.29222 515 ft 6 kts 266°
2026-05-04 10:37 57.67453 12.29099 515 ft 12 kts 261°
2026-05-04 10:37 57.67414 12.29006 515 ft 0 kts 204°
2026-05-04 10:39 57.62466 12.24925 2200 ft 209 kts 183°
2026-05-04 10:39 57.61002 12.25513 3032 ft 221 kts 165°
2026-05-04 10:39 57.59558 12.26629 3837 ft 228 kts 160°
2026-05-04 10:40 57.58108 12.27891 4705 ft 234 kts 156°
2026-05-04 10:40 57.56927 12.30024 5540 ft 246 kts 118°
2026-05-04 10:40 57.56601 12.33246 6108 ft 268 kts 83°
2026-05-04 10:40 57.57045 12.36753 6580 ft 289 kts 68°
2026-05-04 10:41 57.57823 12.40232 7356 ft 298 kts 63°
2026-05-04 10:41 57.58715 12.43756 8245 ft 303 kts 62°
2026-05-04 10:41 57.59795 12.47142 9122 ft 306 kts 45°
2026-05-04 10:41 57.61287 12.49979 9989 ft 309 kts 40°
2026-05-04 10:42 57.62866 12.52868 10433 ft 330 kts 40°
2026-05-04 10:42 57.64564 12.55966 10797 ft 349 kts 40°
2026-05-04 10:42 57.66316 12.59180 11487 ft 357 kts 41°
2026-05-04 10:42 57.68094 12.62469 12252 ft 362 kts 41°
2026-05-04 10:43 57.69893 12.65816 13012 ft 368 kts 41°
2026-05-04 10:44 57.83006 12.90305 14951 ft 384 kts 41°
2026-05-04 10:45 57.84896 12.93848 14927 ft 384 kts 41°
2026-05-04 10:45 57.86788 12.97404 14927 ft 384 kts 41°
2026-05-04 10:45 57.88670 13.00950 14927 ft 384 kts 41°
2026-05-04 10:45 57.90555 13.04506 14920 ft 384 kts 41°
2026-05-04 10:46 57.92437 13.08058 14912 ft 383 kts 41°
2026-05-04 10:46 57.94322 13.11618 14911 ft 384 kts 41°
2026-05-04 10:46 57.96204 13.15174 14910 ft 384 kts 41°
2026-05-04 10:46 57.98061 13.18697 14910 ft 383 kts 41°
2026-05-04 10:47 57.99936 13.22268 14910 ft 384 kts 41°
2026-05-04 10:47 58.01812 13.25843 14907 ft 384 kts 41°
2026-05-04 10:47 58.03695 13.29436 14906 ft 384 kts 41°
2026-05-04 10:47 58.05571 13.33015 14907 ft 384 kts 41°
2026-05-04 10:49 58.18689 13.58217 14896 ft 384 kts 42°
2026-05-04 10:49 58.20560 13.61844 14896 ft 384 kts 42°
2026-05-04 10:50 58.22431 13.65470 14896 ft 384 kts 42°
2026-05-04 10:51 58.35468 13.90865 14890 ft 384 kts 42°
2026-05-04 10:52 58.37327 13.94519 14890 ft 384 kts 42°
2026-05-04 10:52 58.39184 13.98175 14884 ft 384 kts 43°
2026-05-04 10:52 58.41040 14.01829 14884 ft 384 kts 42°
2026-05-04 10:54 58.54030 14.27550 14882 ft 385 kts 43°
2026-05-04 10:54 58.55859 14.31196 14869 ft 385 kts 43°
2026-05-04 10:56 58.68816 14.57221 14872 ft 385 kts 43°
2026-05-04 10:56 58.70661 14.60951 14872 ft 385 kts 43°
2026-05-04 10:56 58.72502 14.64681 14875 ft 384 kts 43°
2026-05-04 10:57 58.74325 14.68373 14876 ft 384 kts 43°
2026-05-04 10:57 58.76191 14.72153 14896 ft 384 kts 43°
2026-05-04 10:57 58.78030 14.75883 14869 ft 384 kts 43°
2026-05-04 10:57 58.79868 14.79623 14870 ft 384 kts 43°
2026-05-04 10:58 58.81680 14.83313 14867 ft 384 kts 43°
2026-05-04 10:58 58.83543 14.87118 14868 ft 384 kts 43°
2026-05-04 10:58 58.85350 14.90823 14867 ft 384 kts 44°
2026-05-04 10:58 58.87183 14.94589 14865 ft 385 kts 44°
2026-05-04 10:59 58.89021 14.98364 14865 ft 385 kts 44°
2026-05-04 10:59 58.90852 15.02132 14865 ft 384 kts 44°
2026-05-04 10:59 58.92685 15.05910 14864 ft 385 kts 44°
2026-05-04 10:59 58.94518 15.09701 14865 ft 385 kts 44°
2026-05-04 11:00 58.96348 15.13492 14857 ft 385 kts 44°
2026-05-04 11:01 59.09126 15.40081 14844 ft 385 kts 44°
2026-05-04 11:02 59.10954 15.43908 14844 ft 386 kts 44°
2026-05-04 11:02 59.12781 15.47730 14844 ft 386 kts 44°
2026-05-04 11:05 59.37586 16.00438 14824 ft 386 kts 45°
2026-05-04 11:06 59.39398 16.04335 14817 ft 386 kts 45°
2026-05-04 11:06 59.41204 16.08221 14812 ft 386 kts 45°
2026-05-04 11:06 59.43016 16.12131 14813 ft 386 kts 45°
2026-05-04 11:06 59.44818 16.16029 14809 ft 386 kts 45°
2026-05-04 11:08 59.57434 16.43516 14816 ft 387 kts 45°
2026-05-04 11:10 59.70008 16.71227 14827 ft 386 kts 46°
2026-05-04 11:12 59.81572 17.00460 14800 ft 390 kts 72°
2026-05-04 11:12 59.82173 17.05690 14802 ft 389 kts 84°
2026-05-04 11:12 59.82282 17.10968 14810 ft 387 kts 94°
2026-05-04 11:12 59.82209 17.16321 14810 ft 387 kts 94°
2026-05-04 11:13 59.82132 17.21664 14812 ft 387 kts 94°
2026-05-04 11:13 59.82052 17.26998 14801 ft 381 kts 94°
2026-05-04 11:13 59.81974 17.32225 14335 ft 378 kts 94°
2026-05-04 11:13 59.81893 17.37435 13836 ft 376 kts 94°
2026-05-04 11:14 59.81808 17.42598 13391 ft 373 kts 94°
2026-05-04 11:14 59.81723 17.47722 12906 ft 369 kts 94°
2026-05-04 11:14 59.81636 17.52808 12427 ft 366 kts 94°
2026-05-04 11:16 59.83304 17.86391 9245 ft 346 kts 58°
2026-05-04 11:16 59.84516 17.90503 8762 ft 343 kts 57°
2026-05-04 11:16 59.86003 17.94147 8293 ft 336 kts 37°
2026-05-04 11:17 59.88009 17.96342 7821 ft 326 kts 13°
2026-05-04 11:17 59.90163 17.97401 7369 ft 322 kts
2026-05-04 11:19 60.04643 17.97778 4133 ft 290 kts 311°
2026-05-04 11:19 60.05751 17.94496 3656 ft 283 kts 290°
2026-05-04 11:19 60.06170 17.90719 3323 ft 274 kts 270°
2026-05-04 11:19 60.05920 17.87049 3193 ft 261 kts 252°
2026-05-04 11:20 60.05118 17.83883 3064 ft 251 kts 234°
2026-05-04 11:20 60.03891 17.81460 2843 ft 247 kts 216°
2026-05-04 11:20 60.02365 17.79976 2683 ft 242 kts 199°
2026-05-04 11:20 60.00721 17.79498 2556 ft 238 kts 182°
2026-05-04 11:22 59.90673 17.83643 1716 ft 184 kts 176°
2026-05-04 11:22 59.89431 17.84252 1687 ft 181 kts 169°
2026-05-04 11:23 59.88259 17.84942 1687 ft 169 kts 168°
2026-05-04 11:23 59.87175 17.85599 1685 ft 159 kts 168°
2026-05-04 11:24 59.81035 17.89265 1341 ft 150 kts 168°
2026-05-04 11:25 59.80037 17.89860 997 ft 147 kts 169°
2026-05-04 11:25 59.79089 17.90428 993 ft 139 kts 168°
2026-05-04 11:25 59.78162 17.90978 978 ft 140 kts 168°
2026-05-04 11:26 59.76287 17.92084 979 ft 141 kts 167°
2026-05-04 11:27 59.69766 17.93609 1157 ft 126 kts 196°
2026-05-04 11:28 59.68909 17.93267 834 ft 125 kts 196°
2026-05-04 11:28 59.68061 17.92935 546 ft 123 kts 196°
2026-05-04 11:28 59.67242 17.92611 324 ft 121 kts 194°
2026-05-04 11:28 59.66418 17.92301 160 ft 120 kts 192°
2026-05-04 11:29 59.65694 17.92016 144 ft 88 kts 186°
2026-05-04 11:29 59.65390 17.91924 144 ft 17 kts 191°
2026-05-04 11:29 59.65195 17.91907 144 ft 32 kts 173°
2026-05-04 11:29 59.65071 17.91974 140 ft 17 kts 158°
2026-05-04 11:31 59.64338 17.92301 138 ft 11 kts 120°